sat.trackr.live / text

‹ back to catalog

STARLINK-11474 [DTC]

NORAD 62065 · 2024-217J

PAYLOAD ACTIVE UNKNOWN

§ Identity

Operator
Country
US
Launch date
2024-11-24
Launch site
AFWTR
Launch vehicle
Mass (kg)
RCS (m²)

Purposes: comms

External: N2YO · Heavens-Above · Gunter

§ Orbital elements

Epoch: 2026-09-21T12:13:42.923712Z

Period
91.74 min
Inclination
53.1575°
Eccentricity
0.0002023
Mean motion
15.69736856 rev/d
Perigee alt
358.3 km
Apogee alt
361.0 km
Semi-major
6,737.8 km
B*
1.0672e-3
RAAN
185.6139°
Arg perigee
75.9309°
Mean anomaly
284.1933°
Rev number
10,593

§ Raw data

STARLINK-11474 [DTC]1 62065U 24217J   26264.50952458  .00130913  00000+0  10672-2 0  99972 62065  53.1575 185.6139 0002023  75.9309 284.1933 15.69736856105934

JSON: /api/v1/satellites/62065 · /tle

For live sub-satellite position, see the globe view (requires WebGL).

§ Visibility from observer

Set your observer location to see the next 7 days of passes ≥ 10°. The values pass through the URL so the page stays shareable.

No JS? Fill the form by hand. The geolocation button needs JavaScript.